Hourly Data Report for December 17, 2004

SHERBROOKE A
QUEBEC

45°26'00.000" N
71°41'00.000" W
241.40 m
7028124
71610
YSC

Download Data

Hourly Data (December 2004)
Hourly Data Report for December 17, 2004
TIME
LST
Temp Definition
°C
Dew Point Definition
°C
Rel Hum Definition
%
Precip. Amount Definition
mm

Wind Dir Definition
10's deg

Wind Spd Definition
km/h
Visibility Definition
km
Stn Press Definition
kPa
Hmdx Definition


Wind Chill Definition


Weather Definition


00:00 -5.3 -6.9 88   13 4 15.0 98.21   -7  
01:00 -1.7 -6.0 72   20 11 15.0 98.20   -6 Snow
02:00 -1.7 -3.2 89   19 13 2.1 98.15   -6 Snow
03:00 -1.7 -3.2 89   19 17 2.1 98.03   -7 Snow
04:00 -1.7 -3.6 87   19 17 6.4 97.95   -7 Snow
05:00 -1.5 -3.8 84   21 11 8.0 97.89   -5 Snow
06:00 -1.0 -3.0 86   22 15 5.6 97.85   -6 Snow
07:00 -0.9 -2.8 87   23 15 4.8 97.85   -6 Snow
08:00 -1.0 -2.3 91   23 15 1.6 97.87   -6 Snow
09:00 -0.7 -2.4 88   24 22 2.4 97.90   -6 Snow Showers
10:00 -3.2 -4.9 88   25 30 1.2 98.10   -11 Snow Showers,Blowing Snow
11:00 -5.6 -7.9 84   25 33 2.4 98.35   -14 Snow Showers,Blowing Snow
12:00 -6.9 -8.9 86   27 35 0.8 98.47   -16 Snow Showers,Blowing Snow
13:00 -8.0 -11.5 76   27 37 12.9 98.62   -18 Snow Showers
14:00 -8.8 -12.0 78   27 28 4.8 98.80   -18 Snow Showers,Blowing Snow
15:00 -9.4 -13.0 75   27 26 19.3 98.94   -18 Snow Showers
16:00 -10.2 -14.3 72   27 17 19.3 99.09   -17 Mainly Clear
17:00 -10.7 -14.2 75   27 22 19.3 99.21   -19 Mainly Clear
18:00 -11.8 -15.2 76   28 19 15.0 99.31   -20  
19:00 -12.4 -14.9 82   27 15 15.0 99.40   -20  
20:00 -13.3 -15.6 83   24 7 15.0 99.53   -18  
21:00 -12.9 -15.4 81   20 6 15.0 99.60   -17  
22:00 -14.2 -16.3 84   24 9 15.0 99.62   -20  
23:00 -15.3 -16.9 88   19 4 15.0 99.65   -18  

Notes on Data Quality.

Legend

  • E = Estimated
  • M = Missing
  • NA = Not Available*
  • [empty] = Indicates an unobserved value
Date modified: